"Pseudo-MPEC" for ST20E11

Created 2020 May 26 12:07:24 UT using Find_Orb

Click here for an explanation of pseudo-MPECs

 
 Astrometry: 
     ST20E11  C2020 05 21yWRG4LGD6Sakjyt^J1f58AstrometrymR'v/sD]1h7B@^Vl,(9aNU68
     ST20E11  C2020 05 21):Hredacted;gd3Ty%G+,CnYBRj0clickifP'vvgv%7-0QUQoB+IU68
     ST20E11  C2020 05 21GST-PIfLUhere0\Dv2%rcmHBsfor9O]j^59@b'M=4X@T*udg?:SDU68
     ST20E11  C2020 05 212pk48eMgqK70+2s2explanation_6qVT+rC$2PxGn2_3_'50RMA8U68

Station data:
(U68) JPL SynTrack Robotic Telescope, Auberry  (N37.070390 W119.412990)
   US/California.

Orbital elements:  ST20E11
   Perihelion 2020 Jan 7.475750 +/- 133 TT = 11:25:04 (JD 2458855.975750)
Epoch 2020 May 21.0 TT = JDT 2458990.5   Earth MOID: 0.0358   AutoNEOCP
M 117.88620932 +/- 100              (J2000 ecliptic)
n   0.87631939 +/- 0.126            Peri.  294.40062 +/- 14
a   1.08150309 +/- 0.104            Node   180.09392 +/- 52
e   0.0751287 +/- 0.148             Incl.    3.06041 +/- 3.0
P   1.12/410.80d           H 23.7   G  0.15   U 11.4  SR
q 1.00025107 +/- 0.126    Q 1.16275511 +/- 0.362
From 4 observations 2020 May 21 (4.3 hr); mean residual 0".84
Residuals in arcseconds: 
200521 U68  .01-  .95-    200521 U68  .25+  1.4-    
200521 U68  .00   1.0+    200521 U68  .23-  1.3+    

Ephemerides (geocentric):
Date (UTC) HH   RA              Dec         delta   r     elong  mag " sig PA
---- -- -- --  -------------   -----------  ------ ------ -----  --- ---- ---
2020 05 26 12  15 43 38.652   +05 36 51.68  .12966 1.1295 152.2 20.7  38d   4
2020 05 26 13  15 43 34.462   +05 36 53.37  .12972 1.1295 152.1 20.7  40d 179
2020 05 26 14  15 43 30.279   +05 36 54.96  .12978 1.1295 152.1 20.7  41d 178
2020 05 26 15  15 43 26.101   +05 36 56.44  .12984 1.1296 152.1 20.7  41d 178
2020 05 26 16  15 43 21.930   +05 36 57.81  .12990 1.1296 152.1 20.7  42d 177
2020 05 26 17  15 43 17.764   +05 36 59.08  .12996 1.1297 152.1 20.7  43d 177
2020 05 26 18  15 43 13.604   +05 37 00.25  .13003 1.1297 152.0 20.7  43d 177
2020 05 26 19  15 43 09.451   +05 37 01.31  .13009 1.1297 152.0 20.7  43d 177
2020 05 26 20  15 43 05.303   +05 37 02.27  .13015 1.1298 152.0 20.7  43d 176
2020 05 26 21  15 43 01.162   +05 37 03.12  .13021 1.1298 152.0 20.7  43d 176
2020 05 26 22  15 42 57.027   +05 37 03.87  .13027 1.1299 151.9 20.7  43d 176
2020 05 26 23  15 42 52.897   +05 37 04.51  .13033 1.1299 151.9 20.7  43d 176
2020 05 27 00  15 42 48.774   +05 37 05.05  .13039 1.1299 151.9 20.7  43d 176
2020 05 27 01  15 42 44.657   +05 37 05.49  .13045 1.1300 151.9 20.7  43d 176
2020 05 27 02  15 42 40.546   +05 37 05.82  .13051 1.1300 151.8 20.7  43d 176
2020 05 27 03  15 42 36.441   +05 37 06.05  .13058 1.1301 151.8 20.7  44d 176
2020 05 27 04  15 42 32.343   +05 37 06.18  .13064 1.1301 151.8 20.7  44d 176
2020 05 27 05  15 42 28.250   +05 37 06.20  .13070 1.1301 151.8 20.7  44d 176
2020 05 27 06  15 42 24.164   +05 37 06.12  .13076 1.1302 151.7 20.7  44d 176
2020 05 27 07  15 42 20.084   +05 37 05.93  .13082 1.1302 151.7 20.7  44d 176
2020 05 27 08  15 42 16.010   +05 37 05.64  .13088 1.1303 151.7 20.7  44d 176
2020 05 27 09  15 42 11.942   +05 37 05.25  .13095 1.1303 151.7 20.8  44d 176
2020 05 27 10  15 42 07.881   +05 37 04.76  .13101 1.1303 151.6 20.8  44d 176
2020 05 27 11  15 42 03.826   +05 37 04.16  .13107 1.1304 151.6 20.8  44d 176
2020 05 27 12  15 41 59.777   +05 37 03.46  .13113 1.1304 151.6 20.8  44d 176
2020 05 27 13  15 41 55.734   +05 37 02.66  .13120 1.1305 151.6 20.8  44d 176
2020 05 27 14  15 41 51.698   +05 37 01.75  .13126 1.1305 151.5 20.8  44d 176
2020 05 27 15  15 41 47.667   +05 37 00.75  .13132 1.1305 151.5 20.8  44d 176
2020 05 27 16  15 41 43.644   +05 36 59.64  .13138 1.1306 151.5 20.8  44d 176
2020 05 27 17  15 41 39.626   +05 36 58.43  .13145 1.1306 151.5 20.8  44d 176
2020 05 27 18  15 41 35.615   +05 36 57.11  .13151 1.1307 151.5 20.8  44d 175
2020 05 27 19  15 41 31.610   +05 36 55.70  .13157 1.1307 151.4 20.8  44d 175
2020 05 27 20  15 41 27.612   +05 36 54.18  .13164 1.1307 151.4 20.8  44d 175
2020 05 27 21  15 41 23.620   +05 36 52.56  .13170 1.1308 151.4 20.8  43d 175
2020 05 27 22  15 41 19.634   +05 36 50.85  .13176 1.1308 151.4 20.8  43d 175
2020 05 27 23  15 41 15.655   +05 36 49.02  .13182 1.1309 151.3 20.8  43d 175
2020 05 28 00  15 41 11.682   +05 36 47.10  .13189 1.1309 151.3 20.8  43d 175
2020 05 28 01  15 41 07.715   +05 36 45.08  .13195 1.1309 151.3 20.8  43d 175
2020 05 28 02  15 41 03.755   +05 36 42.96  .13202 1.1310 151.3 20.8  43d 175
2020 05 28 03  15 40 59.801   +05 36 40.73  .13208 1.1310 151.2 20.8  43d 175
2020 05 28 04  15 40 55.854   +05 36 38.41  .13214 1.1311 151.2 20.8  43d 175
2020 05 28 05  15 40 51.913   +05 36 35.98  .13221 1.1311 151.2 20.8  43d 175
2020 05 28 06  15 40 47.979   +05 36 33.45  .13227 1.1311 151.2 20.8  43d 175
2020 05 28 07  15 40 44.051   +05 36 30.83  .13233 1.1312 151.1 20.8  43d 175
2020 05 28 08  15 40 40.130   +05 36 28.10  .13240 1.1312 151.1 20.8  43d 175
2020 05 28 09  15 40 36.215   +05 36 25.27  .13246 1.1312 151.1 20.8  43d 175
2020 05 28 10  15 40 32.307   +05 36 22.35  .13253 1.1313 151.1 20.8  43d 175
2020 05 28 11  15 40 28.405   +05 36 19.32  .13259 1.1313 151.0 20.8  43d 175